August 13, 2022

Time Code Weather Temp. Visibility Ceiling Wind METAR/SPECI
8:00 pm
V
72 °F 20 mi - 210° 210° 6 kt METAR CYUL 140000Z 21006KT 20SM FEW055 FEW250 22/10 A3006 RMK CF1CI1 CI TR SLP183 DENSITY ALT 900FT
7:00 pm
V
73 °F 25 mi - 180° 180° 7 kt METAR CYUL 132300Z 18007KT 25SM FEW060 FEW250 23/10 A3005 RMK CF1CI1 CI TR SLP180 DENSITY ALT 1000FT
6:00 pm
V
72 °F 25 mi - 180° 180° 8 kt METAR CYUL 132200Z 18008KT 160V220 25SM FEW060 SCT250 22/10 A3006 RMK CU2CI1 SLP182 DENSITY ALT 900FT
5:00 pm
V
75 °F 30 mi - 230° 230° 9 kt METAR CYUL 132100Z 23009KT 190V250 30SM SCT065 SCT250 24/10 A3007 RMK CU3CI1 CI TR SLP185 DENSITY ALT 1100FT
4:00 pm
V
77 °F 30 mi - 190° 190° 7 kt METAR CYUL 132000Z 19007KT 30SM SCT065 25/11 A3008 RMK CU3 SLP189 DENSITY ALT 1100FT
3:00 pm
V
75 °F 30 mi - 210° 210° 11 kt METAR CYUL 131900Z 21011KT 190V260 30SM SCT060 24/10 A3009 RMK CU3 SLP193 DENSITY ALT 1100FT
2:00 pm
V
73 °F 30 mi 25,000 ft Var Var 5 kt METAR CYUL 131800Z VRB05KT 30SM SCT060 BKN250 23/10 A3011 RMK CU4CI1 SLP198 DENSITY ALT 1000FT
1:00 pm
V
72 °F 30 mi 6,000 ft 310° 310° 2 kt METAR CYUL 131700Z 31002KT 30SM BKN060 BKN250 22/09 A3012 RMK CU5CI1 CI TR SLP203 DENSITY ALT 800FT
12:00 pm
V
70 °F 30 mi - 300° 300° 6 kt METAR CYUL 131600Z 30006KT 230V340 30SM FEW050 SCT060 21/09 A3013 RMK CF2CU2 SLP205 DENSITY ALT 700FT
11:00 am
V
70 °F 30 mi - 320° 320° 5 kt METAR CYUL 131500Z 32005KT 200V010 30SM FEW055 FEW250 21/10 A3014 RMK CU1CI1 CI TR SLP210 DENSITY ALT 700FT
10:00 am
V
66 °F 30 mi - Var Var 2 kt METAR CYUL 131400Z VRB02KT 30SM FEW120 FEW250 19/11 A3015 RMK AC1CI1 AC TR CI TR SLP213 DENSITY ALT 400FT
9:00 am
V
64 °F 30 mi - Var Var 2 kt METAR CYUL 131300Z VRB02KT 30SM FEW120 18/12 A3015 RMK AC1 AC TR SLP213 DENSITY ALT 300FT
8:00 am
V
61 °F 30 mi - 330° 330° 4 kt METAR CYUL 131200Z 33004KT 280V350 30SM FEW120 16/11 A3015 RMK AC1 AC TR SLP212
7:00 am
V
57 °F 30 mi - 320° 320° 4 kt METAR CYUL 131100Z 32004KT 30SM FEW120 14/11 A3014 RMK AC1 AC TR SLP209
6:00 am
V
54 °F 30 mi - 020° 020° 3 kt METAR CYUL 131000Z 02003KT 30SM FEW020 FEW090 12/10 A3013 RMK CF1AC1 CF TR AC TR SLP206
5:00 am
V
55 °F 15 mi - 010° 010° 2 kt METAR CYUL 130900Z 01002KT 15SM FEW090 13/11 A3012 RMK AC1 AC TR SLP201
4:00 am
V
57 °F 15 mi - Var Var 2 kt METAR CYUL 130800Z VRB02KT 15SM FEW090 14/12 A3011 RMK AC1 AC TR SLP198
3:00 am
V
59 °F 15 mi - 310° 310° 7 kt METAR CYUL 130700Z 31007KT 15SM FEW090 15/12 A3010 RMK AC1 AC TR SLP195
2:00 am
V
61 °F 15 mi - 300° 300° 7 kt METAR CYUL 130600Z 30007KT 15SM FEW070 16/12 A3010 RMK AC1 AC TR SLP194
1:00 am
V
64 °F 15 mi 7,000 ft 310° 310° 5 kt METAR CYUL 130500Z 31005KT 15SM BKN070 18/12 A3010 RMK AC7 SLP195 DENSITY ALT 300FT
12:00 am
V
64 °F 15 mi 7,000 ft 300° 300° 4 kt METAR CYUL 130400Z 30004KT 15SM OVC070 18/13 A3010 RMK AC8 SLP197 DENSITY ALT 300FT

August 12, 2022

Time Code Weather Temp. Visibility Ceiling Wind METAR/SPECI
11:00 pm
V
64 °F 15 mi 7,500 ft 280° 280° 4 kt METAR CYUL 130300Z 28004KT 15SM OVC075 18/12 A3011 RMK AC8 SLP198 DENSITY ALT 400FT
10:00 pm
V
64 °F 15 mi 7,500 ft 280° 280° 6 kt METAR CYUL 130200Z 28006KT 15SM OVC075 18/12 A3011 RMK AC8 SLP198 DENSITY ALT 300FT
9:00 pm
V
64 °F 15 mi 7,500 ft 310° 310° 4 kt METAR CYUL 130100Z 31004KT 15SM OVC075 18/12 A3010 RMK AC8 SLP197 DENSITY ALT 300FT
8:00 pm
V
64 °F 20 mi 7,500 ft 320° 320° 8 - 15 kt METAR CYUL 130000Z 32008G15KT 20SM BKN075 18/12 A3010 RMK AC7 SLP194 DENSITY ALT 400FT
7:00 pm
V
66 °F 20 mi 7,000 ft 300° 300° 9 kt METAR CYUL 122300Z 30009KT 20SM OVC070 19/12 A3008 RMK AC8 SLP189 DENSITY ALT 500FT
6:00 pm
V
68 °F 20 mi 7,200 ft 280° 280° 7 kt METAR CYUL 122200Z 28007KT 20SM OVC072 20/11 A3007 RMK AC8 SLP185 DENSITY ALT 500FT
5:00 pm
V
68 °F 30 mi 6,800 ft 300° 300° 8 kt METAR CYUL 122100Z 30008KT 280V340 30SM BKN068 20/11 A3007 RMK AC7 SLP185 DENSITY ALT 600FT
4:00 pm
V
68 °F 20 mi 6,000 ft 300° 300° 5 kt METAR CYUL 122000Z 30005KT 260V330 20SM OVC060 20/12 A3007 RMK SC8 SLP185 DENSITY ALT 600FT
3:00 pm
V
68 °F 30 mi 5,500 ft 300° 300° 6 kt METAR CYUL 121900Z 30006KT 30SM BKN055 20/11 A3007 RMK SC7 SLP184 DENSITY ALT 600FT
2:00 pm
V
66 °F 30 mi 4,500 ft 290° 290° 6 kt METAR CYUL 121800Z 29006KT 30SM OVC045 19/11 A3007 RMK SC8 SLP185 DENSITY ALT 400FT
1:00 pm
V
66 °F 30 mi 4,500 ft 350° 350° 6 kt METAR CYUL 121700Z 35006KT 240V360 30SM OVC045 19/10 A3007 RMK SC8 SLP184 DENSITY ALT 400FT
12:00 pm
V
64 °F 30 mi 4,500 ft 310° 310° 6 kt METAR CYUL 121600Z 31006KT 30SM OVC045 18/11 A3007 RMK SC8 SLP186 DENSITY ALT 400FT
11:00 am
V
64 °F 30 mi 4,000 ft 310° 310° 8 kt METAR CYUL 121500Z 31008KT 30SM BKN040 18/10 A3007 RMK SC7 SLP186 DENSITY ALT 400FT
10:00 am
V
64 °F 30 mi 4,500 ft 320° 320° 9 kt METAR CYUL 121400Z 32009KT 30SM FEW025 BKN045 18/09 A3006 RMK CF1SC6 SLP183 DENSITY ALT 400FT
9:00 am
V
61 °F 30 mi 5,000 ft 310° 310° 7 kt METAR CYUL 121300Z 31007KT 30SM FEW020 BKN050 16/11 A3006 RMK CF1SC7 CF TR SLP181 DENSITY ALT 200FT
8:00 am
V
61 °F 30 mi 4,800 ft 300° 300° 7 kt METAR CYUL 121200Z 30007KT 30SM FEW020 BKN048 BKN090 16/11 A3005 RMK CF1SC5AC1 CF TR SLP178
7:00 am
V
61 °F 30 mi 4,800 ft 300° 300° 7 kt METAR CYUL 121100Z 30007KT 30SM BKN048 16/11 A3004 RMK SC6 SLP173
6:00 am
V
61 °F 30 mi 4,600 ft 290° 290° 4 kt METAR CYUL 121000Z 29004KT 30SM BKN046 16/10 A3002 RMK SC7 SLP168
5:00 am
V
61 °F 15 mi 4,700 ft 300° 300° 4 kt METAR CYUL 120900Z 30004KT 15SM BKN047 16/11 A3002 RMK SC7 SLP166 DENSITY ALT 200FT
4:00 am
V
61 °F 15 mi 4,300 ft 290° 290° 5 kt METAR CYUL 120800Z 29005KT 15SM BKN043 16/11 A3002 RMK SC7 SLP166 DENSITY ALT 200FT
3:00 am
V
59 °F 15 mi - 300° 300° 4 kt METAR CYUL 120700Z 30004KT 15SM FEW090 15/11 A3001 RMK AC2 SLP165
2:00 am
V
59 °F 15 mi - 300° 300° 3 kt METAR CYUL 120600Z 30003KT 15SM SKC 15/11 A3000 RMK SLP162
1:00 am
V
63 °F 15 mi - 320° 320° 5 kt METAR CYUL 120500Z 32005KT 15SM SKC 17/11 A3001 RMK SLP164 DENSITY ALT 300FT
12:00 am
V
64 °F 15 mi - 340° 340° 5 kt METAR CYUL 120400Z 34005KT 15SM SKC 18/11 A3000 RMK SLP160 DENSITY ALT 400FT

August 11, 2022

Time Code Weather Temp. Visibility Ceiling Wind METAR/SPECI
11:00 pm
V
64 °F 15 mi - 340° 340° 5 kt METAR CYUL 120300Z 34005KT 15SM SKC 18/11 A2998 RMK SLP153 DENSITY ALT 500FT
10:00 pm
V
68 °F 15 mi - 320° 320° 10 kt METAR CYUL 120200Z 32010KT 15SM FEW150 20/10 A2996 RMK AC1 AC TR SLP148 DENSITY ALT 700FT
9:00 pm
V
70 °F 15 mi - 320° 320° 11 - 16 kt METAR CYUL 120100Z 32011G16KT 15SM FEW055 FEW250 21/10 A2994 RMK CU1CI1 SLP141 DENSITY ALT 800FT
8:00 pm
V
72 °F 30 mi - 310° 310° 12 kt METAR CYUL 120000Z 31012KT 30SM FEW055 FEW250 22/10 A2991 RMK CU1CI1 SLP131 DENSITY ALT 1000FT
7:00 pm
V
75 °F 30 mi - 310° 310° 13 kt METAR CYUL 112300Z 31013KT 30SM FEW055 SCT250 24/10 A2989 RMK CU2CI1 SLP122 DENSITY ALT 1200FT
6:00 pm
V
77 °F 30 mi - 290° 290° 12 kt METAR CYUL 112200Z 29012KT 30SM SCT050 SCT250 25/13 A2986 RMK CU3CI1 SLP114 DENSITY ALT 1400FT
5:00 pm
V
79 °F 30 mi 25,000 ft Var Var 6 kt METAR CYUL 112100Z VRB06KT 30SM SCT055 BKN250 26/16 A2985 RMK CU4CI1 SLP110 DENSITY ALT 1500FT
4:00 pm
V
75 °F 30 mi 8,000 ft 230° 230° 8 kt METAR CYUL 112000Z 23008KT 30SM BKN080 BKN250 24/18 A2984 RMK AC5CI1 SLP108 DENSITY ALT 1400FT
3:19 pm
V
73 °F 30 mi 5,000 ft 270° 270° 7 kt METAR CYUL 111919Z 27007KT 30SM BKN050TCU BKN250 23/17 A2985 RMK TCU5CI1 CI TR SLP109 DENSITY ALT 1300FT
3:00 pm
V
72 °F 30 mi 4,500 ft 240° 240° 7 kt METAR CYUL 111900Z 24007KT 30SM -SHRA BKN045TCU BKN250 22/18 A2985 RMK TCU6CI1 CI TR VIS 10 N-S SLP109 DENSITY ALT 1100FT
2:52 pm
V
68 °F 20 mi 4,500 ft 240° 240° 8 - 19 kt METAR CYUL 111852Z 24008G19KT 20SM R24R/5000VP6000FT/U -SHRA BR BKN045TCU BKN250 20/17 A2985 RMK TCU6CI1 VIS 6 N-S SLP111 DENSITY ALT 800FT
2:44 pm
I
68 °F 2 mi 4,500 ft 280° 280° 15 - 24 kt METAR CYUL 111844Z 28015G24KT 250V310 2SM SHRA BR BKN045TCU BKN080 20/16 A2986 RMK TCU6ACC1 VIS 6 SE PRESRR SLP112 DENSITY ALT 800FT
2:39 pm
I
73 °F 2½ mi 4,500 ft 300° 300° 16 kt METAR CYUL 111839Z 30016KT 200V310 2 1/2SM -SHRA BR BKN045TCU BKN080 23/17 A2985 RMK TCU6ACC1 VIS 15 NW-SW SLP110 DENSITY ALT 1200FT
2:20 pm
V
75 °F 20 mi 9,000 ft 210° 210° 12 kt METAR CYUL 111820Z 21012KT 20SM -SHRA SCT045TCU BKN090 BKN250 24/18 A2984 RMK TCU3ACC2CC1 SLP106 DENSITY ALT 1300FT
2:00 pm
V
77 °F 30 mi 25,000 ft 180° 180° 10 kt METAR CYUL 111800Z 18010KT 30SM FEW050TCU SCT100 BKN250 25/19 A2984 RMK TCU2ACC2CC1 TCU S SLP105 DENSITY ALT 1500FT
1:00 pm
V
77 °F 30 mi 10,000 ft 180° 180° 9 - 15 kt METAR CYUL 111700Z 18009G15KT 30SM SCT040 BKN100 BKN250 25/19 A2986 RMK CU3AC3CC1 SLP113 DENSITY ALT 1400FT
12:00 pm
V
73 °F 30 mi 10,000 ft 200° 200° 6 kt METAR CYUL 111600Z 20006KT 170V240 30SM FEW020 FEW050 BKN100 BKN250 23/17 A2987 RMK CF1CU1AC4CC1 CF TR SLP118 DENSITY ALT 1200FT
11:00 am
V
70 °F 30 mi 10,000 ft 270° 270° 6 kt METAR CYUL 111500Z 27006KT 200V290 30SM BKN100 BKN120 BKN250 21/17 A2987 RMK AC5ACC1CI1 CI TR SLP118 DENSITY ALT 1000FT
Older data

We and third parties follow your internet behavior on our website with cookies. If you continue, we assume you agree with our cookie policy. Learn more